When you browse on this site, cookies collect data to enhance your experience and personalize the content and advertising you see.
Visit our Privacy Policy to learn more. By continuing to use the site, you agree to this use of cookies and data.
  • In Spain
  • List of Countries
  • For 7 days
  • Water Temperature
  • Satellite Maps
  • Weather Map
  • Weather Widgets
  • user-avatar
    Login

    Hourly Weather Canberra

    Today, 23 April, Tuesday

    Time Temperature Precipitation Wind Pressure Humidity
    00:00 +16°C° 0 mm 2 mps 716 mmHg 93%
    01:00 +16°C° 0 mm 3 mps 716 mmHg 91%
    02:00 +15°C° 0 mm 2 mps 716 mmHg 91%
    03:00 +15°C° 0 mm 2 mps 716 mmHg 92%
    04:00 +15°C° 0 mm 1 mps 716 mmHg 93%
    05:00 +14°C° 0 mm 1 mps 716 mmHg 94%
    06:00 +14°C° 0 mm 1 mps 716 mmHg 95%
    07:00 +14°C° 0 mm 1 mps 716 mmHg 96%
    08:00 +15°C° 0 mm 1 mps 717 mmHg 90%
    09:00 +17°C° 0 mm 2 mps 717 mmHg 83%
    10:00 +19°C° 0 mm 2 mps 717 mmHg 76%
    11:00 +20°C° 0 mm 2 mps 717 mmHg 70%
    12:00 +21°C° 0 mm 2 mps 717 mmHg 65%
    13:00 +23°C° 0 mm 2 mps 717 mmHg 59%
    14:00 +23°C° 0 mm 2 mps 716 mmHg 61%
    15:00 +21°C° 0 mm 2 mps 716 mmHg 62%
    16:00 +21°C° 0 mm 2 mps 716 mmHg 63%
    17:00 +19°C° 0 mm 2 mps 716 mmHg 73%
    18:00 +17°C° 0 mm 2 mps 716 mmHg 83%
    19:00 +16°C° 0 mm 2 mps 716 mmHg 93%
    20:00 +15°C° 0 mm 2 mps 716 mmHg 94%
    21:00 +15°C° 0 mm 1 mps 716 mmHg 95%
    22:00 +15°C° 0 mm 1 mps 716 mmHg 97%
    23:00 +15°C° 0 mm 1 mps 716 mmHg 95%

    Tomorrow, 24 April, Wednesday

    Time Temperature Precipitation Wind Pressure Humidity
    00:00 +15°C° 0 mm 1 mps 716 mmHg 94%
    01:00 +16°C° 0 mm 1 mps 716 mmHg 92%
    02:00 +15°C° 0 mm 1 mps 716 mmHg 93%
    03:00 +15°C° 0 mm 1 mps 715 mmHg 94%
    04:00 +13°C° 0 mm 0 mps 715 mmHg 95%
    05:00 +13°C° 0 mm 0 mps 715 mmHg 95%
    06:00 +13°C° 0 mm 0 mps 715 mmHg 94%
    07:00 +13°C° 0 mm 0 mps 715 mmHg 93%
    08:00 +18°C° 0 mm 1 mps 716 mmHg 83%
    09:00 +20°C° 0 mm 1 mps 716 mmHg 72%
    10:00 +22°C° 0 mm 1 mps 716 mmHg 61%
    11:00 +23°C° 0 mm 1 mps 716 mmHg 57%
    12:00 +24°C° 0 mm 2 mps 715 mmHg 53%
    13:00 +25°C° 0 mm 3 mps 715 mmHg 49%
    14:00 +25°C° 0 mm 3 mps 714 mmHg 51%
    15:00 +24°C° 0 mm 3 mps 714 mmHg 52%
    16:00 +24°C° 0 mm 3 mps 713 mmHg 53%
    17:00 +21°C° 0 mm 2 mps 713 mmHg 61%
    18:00 +19°C° 0 mm 2 mps 713 mmHg 69%
    19:00 +18°C° 0 mm 1 mps 713 mmHg 76%
    20:00 +18°C° 0 mm 1 mps 714 mmHg 79%
    21:00 +16°C° 0 mm 1 mps 714 mmHg 81%
    22:00 +16°C° 0 mm 1 mps 714 mmHg 83%
    23:00 +15°C° 0 mm 1 mps 714 mmHg 84%

    Day after tomorrow, 25 April, Thursday

    Time Temperature Precipitation Wind Pressure Humidity
    00:00 +15°C° 0 mm 1 mps 713 mmHg 85%
    01:00 +15°C° 0 mm 1 mps 713 mmHg 86%
    02:00 +14°C° 0 mm 1 mps 713 mmHg 87%
    03:00 +14°C° 0 mm 1 mps 712 mmHg 88%
    04:00 +14°C° 0 mm 1 mps 712 mmHg 90%
    05:00 +14°C° 0 mm 1 mps 712 mmHg 90%
    06:00 +14°C° 0 mm 1 mps 713 mmHg 91%
    07:00 +13°C° 0 mm 1 mps 713 mmHg 92%
    08:00 +16°C° 0 mm 1 mps 713 mmHg 79%
    09:00 +19°C° 0 mm 2 mps 714 mmHg 67%
    10:00 +21°C° 0 mm 3 mps 714 mmHg 55%
    11:00 +22°C° 0 mm 3 mps 714 mmHg 49%
    12:00 +23°C° 0 mm 4 mps 713 mmHg 43%
    13:00 +25°C° 0 mm 4 mps 713 mmHg 38%
    14:00 +23°C° 0 mm 4 mps 712 mmHg 39%
    15:00 +22°C° 0 mm 4 mps 712 mmHg 40%
    16:00 +22°C° 0 mm 4 mps 711 mmHg 41%
    17:00 +20°C° 0 mm 3 mps 711 mmHg 47%
    18:00 +18°C° 0 mm 3 mps 711 mmHg 53%
    19:00 +15°C° 0 mm 2 mps 711 mmHg 59%
    20:00 +15°C° 0 mm 2 mps 711 mmHg 61%
    21:00 +14°C° 0 mm 2 mps 711 mmHg 64%
    22:00 +13°C° 0 mm 2 mps 711 mmHg 66%
    23:00 +13°C° 0 mm 2 mps 711 mmHg 65%

    26 April, Friday

    Time Temperature Precipitation Wind Pressure Humidity
    00:00 +12°C° 0 mm 2 mps 710 mmHg 63%
    01:00 +12°C° 0 mm 2 mps 710 mmHg 61%
    02:00 +11°C° 0 mm 3 mps 709 mmHg 60%
    03:00 +11°C° 0 mm 3 mps 709 mmHg 58%
    04:00 +11°C° 0 mm 3 mps 708 mmHg 57%
    05:00 +11°C° 0 mm 4 mps 709 mmHg 60%
    06:00 +11°C° 0 mm 4 mps 709 mmHg 62%
    07:00 +11°C° 0 mm 4 mps 709 mmHg 64%
    08:00 +12°C° 0 mm 5 mps 709 mmHg 59%
    09:00 +14°C° 0 mm 6 mps 709 mmHg 54%
    10:00 +15°C° 0 mm 7 mps 710 mmHg 48%
    11:00 +16°C° 0 mm 7 mps 709 mmHg 48%
    12:00 +16°C° 0 mm 7 mps 709 mmHg 47%
    13:00 +16°C° 0 mm 7 mps 709 mmHg 46%
    14:00 +15°C° 0 mm 7 mps 709 mmHg 50%
    15:00 +14°C° 0 mm 6 mps 709 mmHg 53%
    16:00 +13°C° 0 mm 6 mps 709 mmHg 56%
    17:00 +12°C° 0 mm 5 mps 710 mmHg 59%
    18:00 +10°C° 0 mm 3 mps 711 mmHg 62%
    19:00 +8°C° 0 mm 2 mps 711 mmHg 65%
    20:00 +7°C° 0 mm 2 mps 712 mmHg 66%
    21:00 +8°C° 0 mm 1 mps 712 mmHg 68%
    22:00 +7°C° 0 mm 1 mps 713 mmHg 70%
    23:00 +6°C° 0 mm 1 mps 713 mmHg 71%

    27 April, Saturday

    Time Temperature Precipitation Wind Pressure Humidity
    00:00 +6°C° 0 mm 1 mps 713 mmHg 73%
    01:00 +5°C° 0 mm 1 mps 713 mmHg 75%
    02:00 +5°C° 0 mm 1 mps 713 mmHg 75%
    03:00 +4°C° 0 mm 1 mps 713 mmHg 76%
    04:00 +4°C° 0 mm 1 mps 713 mmHg 77%
    05:00 +4°C° 0 mm 1 mps 713 mmHg 76%
    06:00 +4°C° 0 mm 1 mps 714 mmHg 75%
    07:00 +4°C° 0 mm 1 mps 714 mmHg 75%
    08:00 +7°C° 0 mm 1 mps 714 mmHg 64%
    09:00 +9°C° 0 mm 1 mps 714 mmHg 53%
    10:00 +12°C° 0 mm 2 mps 715 mmHg 42%
    11:00 +14°C° 0 mm 2 mps 714 mmHg 40%
    12:00 +14°C° 0 mm 3 mps 714 mmHg 38%
    13:00 +16°C° 0 mm 3 mps 713 mmHg 36%
    14:00 +15°C° 0 mm 4 mps 713 mmHg 39%
    15:00 +15°C° 0 mm 4 mps 712 mmHg 41%
    16:00 +14°C° 0 mm 5 mps 712 mmHg 43%
    17:00 +12°C° 0 mm 4 mps 712 mmHg 50%
    18:00 +11°C° 0 mm 4 mps 712 mmHg 56%
    19:00 +8°C° 0 mm 4 mps 712 mmHg 62%
    20:00 +8°C° 0 mm 3 mps 712 mmHg 67%
    21:00 +7°C° 0 mm 3 mps 712 mmHg 71%
    22:00 +7°C° 0 mm 3 mps 713 mmHg 76%
    23:00 +6°C° 0 mm 2 mps 712 mmHg 78%

    28 April, Sunday

    Time Temperature Precipitation Wind Pressure Humidity
    00:00 +6°C° 0 mm 2 mps 712 mmHg 80%
    01:00 +6°C° 0 mm 2 mps 712 mmHg 82%
    02:00 +6°C° 0 mm 2 mps 712 mmHg 84%
    03:00 +5°C° 0 mm 2 mps 712 mmHg 86%
    04:00 +6°C° 0 mm 1 mps 712 mmHg 89%
    05:00 +6°C° 0 mm 1 mps 712 mmHg 89%
    06:00 +5°C° 0 mm 1 mps 712 mmHg 90%
    07:00 +5°C° 0 mm 1 mps 712 mmHg 90%
    08:00 +8°C° 0 mm 1 mps 713 mmHg 78%
    09:00 +11°C° 0 mm 1 mps 713 mmHg 66%
    10:00 +14°C° 0 mm 2 mps 714 mmHg 54%
    11:00 +16°C° 0 mm 2 mps 713 mmHg 50%
    12:00 +17°C° 0 mm 2 mps 713 mmHg 46%
    13:00 +19°C° 0 mm 2 mps 713 mmHg 42%
    14:00 +19°C° 0 mm 2 mps 713 mmHg 44%
    15:00 +18°C° 0 mm 3 mps 713 mmHg 47%
    16:00 +18°C° 0 mm 3 mps 713 mmHg 50%
    17:00 +15°C° 0 mm 2 mps 713 mmHg 60%
    18:00 +13°C° 0 mm 2 mps 713 mmHg 70%
    19:00 +11°C° 0 mm 1 mps 713 mmHg 80%
    20:00 +10°C° 0 mm 1 mps 713 mmHg 83%
    21:00 +9°C° 0 mm 1 mps 713 mmHg 87%
    22:00 +9°C° 0 mm 1 mps 713 mmHg 90%
    23:00 +8°C° 0 mm 1 mps 713 mmHg 91%
    Show more